Location: Unspecified
(0.0000°N, 0.0000°E)
Time: 09:11:46
(UTC+00:00)

Hubble Space Telescope - Pass Details

Date: 16 April 2026
Orbit: 474 x 477 km, 28.5° (Epoch: 9 April)

Event Time Altitude Azimuth Distance (km) Brightness Sun altitude
Rises 18:34:10 0° 222° (SW) 2,511 4.7 -8.5°
Reaches altitude 10° 18:36:36 10° 209° (SSW) 1,633 3.5 -9.1°
Maximum altitude 18:39:48 26° 151° (SSE) 955 1.7 -9.8°
Enters shadow 18:42:08 15° 101° (E) 1,358 2.1 -10.4°
